This is the latest recevied weather packets stored in our database for station/object IR2UAZ-13. If no packets are shown the sender has not sent any weather packets the latest 10 day(s).
| Time | Temp. | Humidity | Pressure | Rain* | Wind** | Luminosity | Snow |
|---|---|---|---|---|---|---|---|
| 1788115726 | 18.89° C | 70% | 1029.1 hPa | - | - | - | - |
| 1788114526 | 18.89° C | 70% | 1028.9 hPa | - | - | - | - |
| 1788113326 | 18.89° C | 69% | 1028.8 hPa | - | - | - | - |
| 1788112125 | 19.44° C | 68% | 1028.7 hPa | - | - | - | - |
| 1788110925 | 19.44° C | 68% | 1028.6 hPa | - | - | - | - |
| 1788109725 | 20° C | 67% | 1028.6 hPa | - | - | - | - |
| 1788108524 | 20.56° C | 68% | 1028.7 hPa | - | - | - | - |
| 1788107324 | 19.44° C | 70% | 1028.8 hPa | - | - | - | - |
| 1788106124 | 19.44° C | 70% | 1028.9 hPa | - | - | - | - |
| 1788104923 | 18.89° C | 71% | 1028.8 hPa | - | - | - | - |
| 1788103723 | 18.89° C | 71% | 1028.9 hPa | - | - | - | - |
| 1788102523 | 18.89° C | 71% | 1029 hPa | - | - | - | - |
| 1788101322 | 18.89° C | 71% | 1028.8 hPa | - | - | - | - |
| 1788100122 | 18.89° C | 71% | 1029 hPa | - | - | - | - |
| 1788098922 | 18.89° C | 71% | 1029 hPa | - | - | - | - |
| 1788097721 | 18.89° C | 71% | 1029.2 hPa | - | - | - | - |
| 1788096521 | 18.89° C | 71% | 1029.2 hPa | - | - | - | - |
| 1788095321 | 18.33° C | 71% | 1029.3 hPa | - | - | - | - |
| 1788094119 | 18.33° C | 71% | 1029.3 hPa | - | - | - | - |
| 1788092919 | 18.33° C | 71% | 1029.3 hPa | - | - | - | - |
| 1788091719 | 18.33° C | 71% | 1029.3 hPa | - | - | - | - |
| 1788090518 | 18.33° C | 71% | 1029.3 hPa | - | - | - | - |
| 1788089318 | 18.33° C | 71% | 1029.3 hPa | - | - | - | - |
| 1788088118 | 18.33° C | 71% | 1029.3 hPa | - | - | - | - |
| 1788086917 | 18.33° C | 71% | 1029.2 hPa | - | - | - | - |
* Rain since midnight (hover to see other rain measurements)
** Current wind speed in m/s (hover to see current wind gust speed)